Location: Deep River
(46.0977°N, 77.4933°W)
Time: 12:59:13
(UTC-04:00)

Envisat - Visible Passes

Search period start: 20 October 2019 00:00
Search period end: 30 October 2019 00:00
Orbit: 764 x 766 km, 98.1° (Epoch: 20 October)

Date Brightness Start Highest point End Pass type
(mag) Time Alt. Az. Time Alt. Az. Time Alt. Az.
20 Oct 5.2 20:12:38 10° SSW 20:16:49 26° W 20:21:02 10° NW visible
21 Oct 6.5 06:41:03 10° ENE 06:43:06 12° E 06:45:08 10° ESE visible
21 Oct 3.8 19:34:52 10° S 19:39:49 53° W 19:44:49 10° NNW visible
22 Oct 2.9 18:57:58 10° SSE 19:03:01 74° ENE 19:08:07 10° N visible
22 Oct 6.0 20:39:42 10° SW 20:42:36 15° W 20:45:31 10° NW visible
23 Oct 6.0 07:05:05 10° NE 07:08:55 21° E 07:12:44 10° SE visible
23 Oct 4.9 20:00:58 10° SSW 20:05:28 32° W 20:10:00 10° NNW visible
24 Oct 3.4 19:23:29 10° S 19:28:32 67° W 19:33:36 10° NNW visible
25 Oct 3.0 18:46:48 10° SSE 18:51:47 59° ENE 18:56:48 10° N visible
25 Oct 5.7 20:27:39 10° SW 20:31:13 19° W 20:34:48 10° NW visible
26 Oct 6.1 06:54:15 10° NE 06:57:32 17° E 07:00:48 10° SE visible
26 Oct 4.4 19:49:23 10° SSW 19:54:07 39° W 19:58:54 10° NNW visible
27 Oct 3.1 19:12:10 10° SSE 19:17:14 83° WSW 19:22:22 10° NNW visible
27 Oct 6.2 20:55:49 10° W 20:57:04 11° W 20:58:18 10° WNW visible
28 Oct 3.2 18:35:43 10° SE 18:40:34 48° ENE 18:45:27 10° N visible
28 Oct 5.3 20:15:48 10° SW 20:19:50 24° W 20:23:53 10° NW visible
29 Oct 6.3 06:43:38 10° ENE 06:46:07 13° E 06:48:36 10° ESE visible
29 Oct 4.0 19:37:54 10° S 19:42:48 49° W 19:47:45 10° NNW visible
